EHI
0 0 0 0 0 0 0 0 1 3 7 14 21 28 35 40 38 37 35 34 38 44 47 51 55 56 54 53 56 60 65 67 66 63 60 56 51 50 48 42 40 40 37 34
0 0 0 0 0 0 0 0 1 4 9 16 21 26 33 39 39 38 35 36 41 47 51 56 60 60 59 57 57 60 65 68 66 63 60 58 55 53 50 46 45 44 41 39
0 0 0 0 0 0 1 2 4 8 13 17 21 25 32 38 40 39 37 40 47 51 53 57 60 62 63 61 58 59 62 64 63 59 57 56 54 53 51 49 49 49 47 44
0 0 0 0 0 1 3 6 8 11 14 16 21 28 34 39 42 41 39 43 49 50 49 50 52 56 61 61 58 57 57 57 55 53 52 51 49 49 50 50 50 50 47 43
0 0 0 0 0 2 5 8 10 12 14 15 19 26 35 43 45 43 40 44 47 46 45 45 45 48 54 56 55 53 52 51 51 50 50 49 46 46 48 49 48 45 42 41
0 0 0 0 1 3 5 8 10 13 15 17 20 27 36 45 48 46 45 47 48 46 47 48 47 48 51 52 51 50 49 49 50 50 49 48 45 43 45 46 45 41 39 40
0 0 1 2 2 6 12 16 16 18 20 23 29 35 41 45 48 48 48 49 49 48 50 53 53 53 53 52 51 51 51 49 48 47 45 43 42 42 43 44 44 42 41 41
1 2 5 7 9 15 25 28 26 25 24 27 32 38 42 43 42 43 45 48 49 49 50 53 54 54 54 54 54 53 50 46 43 41 38 38 40 42 43 45 45 44 43 43
7 8 11 14 18 24 28 30 30 29 26 26 30 35 39 38 34 34 40 46 49 50 50 50 50 49 51 53 53 48 44 41 37 34 33 34 37 39 41 43 42 40 40 41
15 15 16 17 20 23 23 24 26 26 25 25 28 32 33 32 32 33 39 45 49 50 49 46 45 45 47 48 45 40 37 34 32 28 27 29 32 33 34 35 35 34 35 36
20 19 17 16 17 17 18 20 21 22 24 24 26 26 26 27 32 35 40 45 48 48 46 43 41 42 43 43 40 36 33 29 26 25 24 25 26 24 24 24 23 24 26 28
19 18 17 16 15 15 16 17 18 20 22 23 23 21 21 24 29 33 36 39 41 41 40 38 36 36 37 38 38 36 30 24 22 22 23 23 22 18 16 13 11 11 13 15
18 18 17 16 15 15 16 17 18 19 21 21 20 18 20 23 25 27 30 32 32 32 31 32 31 30 31 35 37 33 26 20 20 20 20 20 19 16 13 9 6 4 4 5
18 18 17 16 16 17 17 17 17 18 19 19 16 16 19 22 22 23 25 26 24 22 23 27 29 28 29 31 32 28 21 18 19 19 18 17 17 16 14 12 9 7 4 2
17 17 17 16 16 16 16 16 17 18 17 16 15 14 17 19 19 20 21 21 20 19 20 24 28 30 29 28 27 23 19 17 17 16 15 14 15 15 15 14 13 11 7 4
14 14 14 14 14 14 15 15 15 14 14 14 13 13 14 15 17 17 17 18 20 20 21 23 27 29 29 26 23 20 16 14 13 11 10 11 14 16 15 14 13 12 10 8
12 12 12 12 12 13 13 12 11 10 11 10 10 11 12 14 16 17 17 19 21 23 23 23 24 27 27 24 19 15 12 10 10 10 9 12 15 17 16 14 12 11 11 10
13 12 12 12 11 11 11 10 9 8 9 9 9 10 12 15 18 19 18 19 22 23 23 22 21 23 24 21 16 12 10 10 10 12 14 17 18 17 15 13 11 11 11 10
14 13 13 12 11 10 10 10 10 10 10 9 10 11 14 18 21 21 19 19 21 22 22 21 18 19 20 18 14 12 11 10 9 12 17 20 18 17 16 14 12 11 11 12
12 12 12 12 11 10 10 10 10 11 10 10 10 12 16 20 22 21 19 19 19 19 18 17 16 17 18 15 11 10 10 8 7 9 14 16 16 16 17 15 13 13 13 13
9 9 10 10 10 10 10 10 9 9 9 9 9 12 17 20 21 18 15 14 14 14 13 13 14 14 14 11 7 7 8 7 7 7 9 11 13 13 13 12 11 11 11 10
7 7 7 7 7 8 8 7 6 6 6 6 7 10 15 17 16 13 10 8 7 7 8 9 9 8 7 7 7 6 7 8 7 7 6 8 9 8 8 6 6 6 7 7
4 5 5 5 4 3 3 3 3 4 4 4 6 9 12 13 12 9 6 3 3 3 4 5 4 2 3 6 8 8 8 9 8 7 6 7 8 6 4 3 2 3 5 6
4 5 4 3 2 1 1 1 1 2 3 6 8 9 9 9 9 7 4 1 1 2 2 2 1 0 3 7 9 8 8 8 7 6 6 7 7 5 3 3 3 3 5 6
6 5 5 3 2 2 1 1 1 2 5 7 8 9 7 6 6 5 2 0 0 1 1 1 1 1 2 5 6 6 6 6 5 4 4 5 6 4 4 4 5 5 5 6
4 4 3 2 2 2 1 1 3 5 6 7 8 7 5 3 2 1 1 1 1 1 1 0 1 1 1 2 3 3 4 4 3 2 3 4 5 4 4 6 6 5 4 4
2 1 1 1 1 1 0 2 5 7 8 7 7 6 4 2 0 0 1 2 2 2 1 0 1 1 1 1 1 1 2 3 3 2 3 4 4 4 4 5 5 4 3 3
Wind_Speed
16 13 12 13 13 14 13 12 11 6 5 7 5 4 6 7 7 7 7 8 7 6 6 6 6 6 7 6 6 6 7 8 8 7 6 5 5 4 4 4 5 3 3 2
15 16 15 13 13 13 13 13 12 9 3 7 6 4 5 6 5 6 6 7 7 6 6 6 6 6 6 6 6 6 6 6 6 6 6 6 5 5 4 4 4 3 3 3
13 15 16 17 14 14 13 12 11 8 3 4 5 5 5 6 5 4 5 5 6 5 6 5 5 5 5 6 6 5 5 5 5 6 6 5 6 5 4 4 4 4 3 3
12 13 18 13 10 11 10 9 7 4 2 3 5 6 5 4 5 4 4 3 3 5 6 5 5 6 4 5 6 6 6 5 4 5 5 4 4 4 4 4 3 3 3 3
11 14 15 13 11 11 10 8 6 4 3 2 3 5 4 4 5 4 4 3 2 2 4 5 5 5 6 5 4 5 5 5 5 5 5 5 4 4 4 4 4 4 3 3
11 14 14 10 9 7 6 7 4 2 2 2 2 3 2 4 4 4 4 3 2 2 3 4 4 4 5 5 5 5 5 5 5 5 5 5 5 4 4 4 4 4 3 3
14 14 10 6 5 6 10 4 2 2 1 0 1 2 3 4 4 4 4 4 4 4 3 3 3 3 3 3 3 3 3 3 3 3 3 4 4 3 3 4 4 4 3 3
13 14 9 4 3 2 2 4 4 4 2 2 4 4 4 5 4 3 4 4 4 4 4 3 4 4 3 2 2 3 3 3 3 3 3 3 3 3 3 3 3 4 3 3
6 5 1 4 4 4 4 4 4 3 3 3 4 4 3 4 4 3 2 3 3 3 4 3 3 3 3 2 3 3 3 2 2 2 2 3 4 4 3 3 3 3 3 3
4 3 2 0 2 2 2 2 2 2 2 2 2 3 3 3 3 3 2 2 3 3 3 3 3 3 3 3 3 3 3 2 2 2 2 2 2 3 3 3 3 3 3 2
6 4 2 2 1 1 1 1 0 0 1 1 2 2 2 3 2 2 2 2 2 2 3 3 3 3 3 3 3 4 3 3 3 3 3 2 2 1 2 1 2 2 2 2
4 3 3 3 2 2 1 1 0 0 1 1 3 4 3 3 3 2 2 2 2 2 3 3 3 3 3 3 3 4 3 3 3 3 3 3 3 2 3 1 2 3 2 2
4 4 3 2 2 3 2 1 1 1 1 1 2 2 3 3 3 2 2 2 2 2 2 3 3 3 3 3 2 2 2 2 2 3 3 3 3 4 3 1 1 2 2 3
3 3 3 2 2 2 1 1 1 1 1 1 1 2 3 3 2 2 2 1 2 2 2 3 3 3 3 2 2 2 2 2 3 2 3 3 3 3 4 4 4 3 2 4
5 4 3 2 3 3 1 1 1 1 1 1 1 2 2 2 2 1 1 1 1 2 2 3 3 3 2 2 2 2 2 2 2 2 3 3 3 3 3 3 3 3 3 3
5 5 4 4 4 3 3 2 2 1 1 1 1 1 2 2 2 2 2 1 1 2 2 2 2 2 2 2 2 2 2 3 3 3 3 2 2 2 2 2 2 2 2 3
6 6 5 5 4 4 3 3 2 2 2 2 1 1 2 2 2 2 2 1 1 1 1 1 1 1 2 2 2 2 2 3 4 3 3 2 2 2 2 2 2 2 1 2
5 4 4 4 4 3 3 2 2 2 2 1 1 1 2 3 2 2 2 2 2 1 1 1 1 1 2 2 2 2 2 2 2 3 2 2 2 2 2 2 2 2 1 3
3 3 3 3 3 3 3 2 2 2 1 1 2 1 2 2 2 2 2 2 2 2 1 1 2 2 2 2 3 3 3 2 2 2 2 1 2 3 3 2 2 2 2 2
3 3 3 3 3 3 3 3 2 2 3 3 2 2 2 2 2 2 2 2 1 1 2 2 3 2 2 2 4 4 3 3 2 2 2 2 2 2 2 2 2 2 2 2
3 3 3 3 2 2 3 3 3 3 3 3 3 3 2 2 2 2 2 2 1 1 2 3 2 2 2 2 3 4 3 2 1 1 1 1 2 2 2 2 2 2 2 2
2 3 3 3 3 2 2 2 3 3 3 2 3 3 3 3 3 2 2 2 1 1 2 2 1 1 2 3 2 2 2 1 1 1 1 1 2 1 1 1 1 1 2 2
2 2 3 3 3 2 2 2 2 2 3 3 3 3 3 2 2 3 2 2 1 1 1 0 1 2 2 2 2 2 2 2 1 1 1 1 1 1 1 1 2 2 2 2
2 2 2 2 2 2 1 1 2 2 3 3 3 3 3 3 2 2 2 3 3 2 1 1 2 1 2 2 2 2 2 2 2 1 2 2 1 1 1 1 2 2 2 2
1 1 1 2 2 1 1 2 2 3 4 3 4 4 3 2 2 2 2 3 4 2 2 2 3 3 3 2 2 2 1 2 2 2 2 2 2 1 1 2 2 2 2 2
1 1 1 1 1 1 1 1 1 2 3 3 3 2 2 2 3 2 2 4 4 3 2 1 2 3 2 2 2 1 1 0 1 1 2 2 2 2 0 1 2 2 2 2
2 1 1 1 1 1 1 1 1 1 2 2 2 2 2 3 3 2 2 2 3 3 2 1 1 1 1 1 1 1 1 1 1 1 2 2 1 1 1 1 1 1 1 2
Wind_Direction
260 260 249 234 233 234 241 252 259 250 188 157 144 151 138 132 132 133 135 139 138 140 143 149 151 154 161 167 168 166 163 167 170 172 171 170 172 173 176 182 185 181 177 175
258 258 254 245 236 236 238 245 251 253 196 135 131 116 115 121 130 131 135 145 144 142 139 152 159 163 163 167 163 154 161 170 167 167 171 175 173 174 179 182 180 179 177 175
255 254 258 245 237 235 238 241 248 252 195 136 130 127 132 133 132 127 136 143 145 147 148 158 157 160 164 161 153 156 167 169 166 168 174 178 181 177 180 182 180 182 182 167
252 252 249 248 244 242 236 241 242 225 193 170 144 133 111 114 121 117 111 111 138 158 158 163 163 163 150 153 151 161 165 169 169 173 175 174 175 177 181 182 181 188 187 172
247 244 246 248 237 235 235 236 237 221 193 165 144 136 114 101 116 116 118 120 129 163 164 157 158 153 145 148 161 164 165 167 176 177 176 179 185 185 183 179 182 190 183 182
245 248 244 244 239 229 232 230 224 203 186 201 197 220 124 96 105 117 122 120 122 124 123 131 138 146 152 158 166 172 173 174 176 176 179 180 182 188 182 181 188 193 190 185
240 247 251 267 257 230 225 210 142 142 153 216 71 40 85 96 91 93 104 109 110 104 101 110 121 123 131 147 162 162 153 157 159 160 167 172 171 180 185 192 190 193 186 186
234 240 240 290 246 245 61 78 91 86 92 89 89 95 96 94 92 95 97 99 103 108 103 102 112 122 127 129 127 123 131 140 153 157 182 168 152 164 178 189 190 200 198 202
231 237 289 2 49 69 79 76 75 85 82 91 112 120 117 110 110 107 101 105 106 115 113 111 116 126 132 119 113 117 124 135 145 161 181 154 166 176 186 191 202 206 201 204
241 214 202 204 57 59 83 85 73 83 87 92 123 123 124 123 118 119 109 105 109 119 127 123 126 124 119 119 126 132 142 151 165 184 179 160 175 186 198 193 203 212 214 203
224 229 230 166 193 49 48 71 359 332 148 148 139 134 140 129 118 126 121 111 118 123 129 128 125 126 127 132 144 153 162 173 191 201 184 171 181 179 200 176 196 214 225 205
236 237 246 237 248 261 249 226 101 151 154 186 149 160 165 143 137 139 144 126 123 125 130 127 130 133 134 141 153 164 176 192 200 198 184 185 180 154 47 74 133 122 112 154
264 262 246 255 288 280 236 171 161 140 131 109 114 142 141 133 139 143 149 142 130 139 139 129 138 144 144 149 156 166 191 211 220 216 197 196 195 193 183 144 82 118 137 141
258 245 239 252 277 284 206 166 141 125 119 130 128 130 133 139 149 148 151 157 141 146 146 141 145 147 150 151 157 175 209 221 243 227 214 214 209 212 205 198 196 199 189 185
255 249 238 248 257 237 205 194 179 169 161 160 144 137 141 135 135 148 146 168 149 153 154 151 150 148 153 158 168 191 229 231 244 251 234 223 217 223 229 222 212 203 179 177
248 242 232 240 234 219 217 215 208 191 199 199 163 151 148 147 148 151 153 159 159 154 144 143 146 149 157 166 188 203 232 256 248 253 246 233 225 230 233 233 238 225 201 172
241 236 230 221 216 215 212 208 199 204 213 200 167 164 161 169 154 141 139 150 128 132 143 146 153 154 168 189 217 233 231 233 234 239 242 240 244 250 255 251 245 247 223 170
238 236 235 219 212 217 209 196 190 190 196 174 155 185 185 171 161 153 145 147 143 140 157 156 147 192 206 216 247 255 249 234 222 244 247 246 251 247 248 257 265 266 230 181
232 216 203 196 199 190 177 171 179 186 183 174 189 206 197 181 168 164 166 177 180 186 180 146 177 223 227 236 274 266 261 243 225 239 249 237 254 258 255 256 261 258 264 240
203 184 170 169 171 174 172 175 194 194 185 184 198 207 190 185 181 178 176 188 215 205 167 177 208 233 235 239 266 268 268 259 247 244 252 254 269 277 277 277 269 265 261 255
178 162 154 153 160 172 173 184 198 195 189 188 201 205 188 175 172 174 190 196 162 162 193 201 227 245 268 284 263 270 271 287 288 283 284 291 295 298 299 294 289 281 277 269
161 160 158 154 151 152 156 170 177 181 180 196 213 206 189 180 176 174 180 200 202 216 230 227 231 344 332 292 254 267 286 313 323 323 325 318 309 310 316 316 300 295 293 287
155 152 147 141 142 140 141 159 163 161 170 185 188 180 183 194 205 199 198 194 200 190 224 302 50 37 349 286 276 280 298 307 308 313 327 333 336 333 319 326 326 325 324 319
126 116 126 138 141 140 147 174 157 160 177 180 176 182 194 192 192 195 170 151 147 155 163 116 131 171 260 259 260 267 281 293 304 317 334 331 343 352 341 340 329 321 326 322
125 144 164 168 170 170 175 185 186 187 187 184 189 191 198 198 191 169 156 139 135 155 163 168 193 215 248 267 267 270 291 314 331 328 324 320 322 331 346 340 339 339 347 346
195 199 160 165 195 215 212 202 195 185 176 179 182 174 167 162 162 163 161 159 166 183 205 184 191 208 232 259 271 273 296 302 264 276 307 321 318 317 348 9 342 336 334 345
175 178 157 177 192 234 260 226 198 177 157 152 155 154 161 168 164 164 166 162 165 166 167 192 214 221 238 272 291 304 309 318 334 344 335 336 347 346 2 9 335 341 334 330